Simultaneous Nadir Overpasses (SNOs) Predictions

Prediction of SNOs between METOP-B and NOAA-19 Satellite Orbit:

Table of predicted SNOs for the next 14.0 days since TLE Epoch: 12/1/2017
Index Date (METOP-B) Time (METOP-B) Lat,Lon (METOP-B) SZA (METOP-B ) Date (NOAA-19) Time (NOAA-19) Lat,Lon (NOAA-19) SZA (NOAA-19 ) Distance(km) Time Diff (sec)
1 12/04/2017 05:16:42 -78.20, -69.84 79.38 12/04/2017 05:15:38 -78.18, -74.18 79.55 98.96 64
2 12/04/2017 06:07:33 77.77, 95.28 100.13 12/04/2017 06:06:34 77.78, 95.30 100.13 1.48 59
3 12/04/2017 06:58:14 -77.78, -97.34 79.86 12/04/2017 06:57:29 -77.78, -97.44 79.87 2.35 45
4 12/04/2017 07:48:55 77.75, 69.86 100.12 12/04/2017 07:48:35 77.77, 69.88 100.13 1.64 20
5 12/04/2017 08:39:36 -77.76,-122.76 79.87 12/04/2017 08:39:30 -77.77,-122.86 79.87 2.46 6
6 12/04/2017 09:30:17 77.74, 44.43 100.11 12/04/2017 09:30:36 77.75, 44.45 100.13 1.82 19
7 12/04/2017 10:20:58 -77.75,-148.18 79.88 12/04/2017 10:21:31 -77.75,-148.29 79.87 2.59 33
8 12/04/2017 11:11:39 77.72, 19.01 100.10 12/04/2017 11:12:37 77.74, 19.03 100.12 2.00 58
9 12/04/2017 12:02:20 -77.73,-173.60 79.89 12/04/2017 12:03:32 -77.74,-173.71 79.88 2.73 72
10 12/15/2017 01:26:10 -77.93, -13.58 78.73 12/15/2017 01:24:58 -77.94, -14.84 78.76 29.30 72
11 12/15/2017 02:16:53 77.81, 153.12 101.13 12/15/2017 02:15:59 77.80, 153.18 101.12 1.52 54
12 12/15/2017 03:07:35 -77.79, -39.61 78.89 12/15/2017 03:06:56 -77.81, -39.63 78.87 2.19 39
13 12/15/2017 03:58:15 77.79, 127.70 101.12 12/15/2017 03:58:00 77.79, 127.75 101.11 1.31 15
14 12/15/2017 04:48:57 -77.78, -65.03 78.90 12/15/2017 04:48:57 -77.80, -65.05 78.88 2.43 0
15 12/15/2017 05:39:37 77.77, 102.28 101.10 12/15/2017 05:40:01 77.77, 102.33 101.11 1.14 24
16 12/15/2017 06:30:19 -77.76, -90.46 78.92 12/15/2017 06:30:58 -77.79, -90.47 78.89 2.67 39
17 12/15/2017 07:20:59 77.76, 76.86 101.09 12/15/2017 07:22:02 77.76, 76.90 101.10 1.03 63
18 12/15/2017 08:11:44 -77.62,-116.47 79.07 12/15/2017 08:12:56 -77.65,-115.28 79.00 28.65 72




NCC Satellite Simultaneous Nadir Overpasses (SNOs) Prediction Service
